Location: Im Fang
(46.6019°N, 7.2397°E)
Time: 07:48:12
(UTC+00:00)

SL-16 R/B - Pass Details

Date: 08 December 2019
Orbit: 840 x 849 km, 71.0° (Epoch: 18 January)

Event Time Altitude Azimuth Distance (km) Brightness Sun altitude
Exits shadow 03:04:41 21° 115° (ESE) 1,824 4.3 -39.7°
Drops below altitude 10° 03:06:39 10° 125° (SE) 2,470 5.0 -39.4°
Sets 03:09:13 0° 133° (SE) 3,400 5.8 -39.0°
